| time (UTC) | temp C | wind direction | speed KPH | gust KPH | rain 1hr cm | rain 24hr cm | rain mn cm | humidity % | barometer mb |
| 20260503235419 | 12 | 140 | 1.6 | 6.4 | 0.05 | 0.23 | 0.05 | 94 | 949.5 |
| 20260503234918 | 12 | 131 | 4.8 | 6.4 | 0.05 | 0.23 | 0.05 | 93 | 949.5 |
| 20260503234419 | 12 | 133 | 3.2 | 4.8 | 0.05 | 0.23 | 0.05 | 93 | 949.4 |
| 20260503233918 | 12 | 235 | 0.0 | 3.2 | 0.05 | 0.23 | 0.05 | 93 | 949.4 |
| 20260503233419 | 12 | 235 | 0.0 | 1.6 | 0.05 | 0.23 | 0.05 | 93 | 949.3 |
| 20260503233126 | 12 | 234 | 0.0 | 0.0 | 0.05 | 0.23 | 0.05 | 93 | 949.3 |
| 20260503232626 | 12 | 234 | 0.0 | 3.2 | 0.05 | 0.23 | 0.05 | 92 | 949.4 |
| 20260503231917 | 12 | 235 | 0.0 | 3.2 | 0.05 | 0.23 | 0.05 | 92 | 949.4 |
| 20260503231626 | 12 | 237 | 0.0 | 3.2 | 0.05 | 0.23 | 0.05 | 92 | 949.4 |
| 20260503230917 | 12 | 237 | 1.6 | 4.8 | 0.03 | 0.23 | 0.03 | 92 | 949.5 |
| 20260503230625 | 12 | 310 | 1.6 | 4.8 | 0.00 | 0.23 | 0.00 | 92 | 949.5 |
| 20260503230125 | 12 | 316 | 0.0 | 6.4 | 0.00 | 0.23 | 0.00 | 91 | 949.4 |
| 20260503225418 | 13 | 323 | 3.2 | 6.4 | 0.00 | 0.23 | 0.00 | 90 | 949.4 |
| 20260503224917 | 13 | 223 | 1.6 | 6.4 | 0.00 | 0.25 | 0.00 | 90 | 949.4 |
| 20260503224417 | 13 | 282 | 1.6 | 8.0 | 0.00 | 0.28 | 0.00 | 90 | 949.5 |
| 20260503223917 | 13 | 300 | 3.2 | 8.0 | 0.00 | 0.28 | 0.00 | 91 | 949.5 |
| 20260503223417 | 12 | 285 | 1.6 | 6.4 | 0.00 | 0.30 | 0.00 | 92 | 949.5 |
| 20260503222917 | 12 | 290 | 0.0 | 3.2 | 0.00 | 0.30 | 0.00 | 93 | 949.4 |
| 20260503222417 | 12 | 292 | 0.0 | 3.2 | 0.00 | 0.33 | 0.00 | 93 | 949.6 |
| 20260503221916 | 12 | 292 | 0.0 | 3.2 | 0.00 | 0.36 | 0.00 | 93 | 949.6 |
| 20260503221416 | 12 | 288 | 0.0 | 3.2 | 0.00 | 0.38 | 0.00 | 94 | 949.5 |
| 20260503221125 | 12 | 317 | 0.0 | 0.0 | 0.00 | 0.41 | 0.00 | 94 | 949.5 |
| 20260503220417 | 12 | 317 | 0.0 | 3.2 | 0.00 | 0.43 | 0.00 | 94 | 949.6 |
| 20260503215916 | 12 | 317 | 0.0 | 3.2 | 0.00 | 0.43 | 0.43 | 94 | 949.6 |
| 20260503215416 | 12 | 319 | 0.0 | 3.2 | 0.00 | 0.46 | 0.43 | 94 | 949.6 |
| 20260503214916 | 12 | 274 | 0.0 | 1.6 | 0.00 | 0.48 | 0.43 | 94 | 949.5 |
| 20260503214624 | 12 | 274 | 0.0 | 0.0 | 0.00 | 0.51 | 0.43 | 94 | 949.6 |
| 20260503213916 | 12 | 274 | 0.0 | 1.6 | 0.00 | 0.51 | 0.43 | 94 | 949.5 |
| 20260503213415 | 12 | 274 | 0.0 | 1.6 | 0.00 | 0.51 | 0.43 | 94 | 949.5 |
| 20260503213124 | 12 | 274 | 0.0 | 3.2 | 0.00 | 0.53 | 0.43 | 93 | 949.6 |
| 20260503212415 | 12 | 274 | 0.0 | 3.2 | 0.00 | 0.56 | 0.43 | 93 | 949.7 |
| 20260503211915 | 13 | 244 | 0.0 | 3.2 | 0.00 | 0.56 | 0.43 | 94 | 949.6 |
| 20260503211415 | 13 | 228 | 1.6 | 3.2 | 0.00 | 0.58 | 0.43 | 94 | 949.6 |
| 20260503210915 | 13 | 275 | 0.0 | 3.2 | 0.00 | 0.61 | 0.43 | 94 | 949.6 |
| 20260503210415 | 13 | 269 | 0.0 | 1.6 | 0.00 | 0.61 | 0.43 | 94 | 949.7 |
| 20260503205916 | 13 | 255 | 0.0 | 1.6 | 0.00 | 0.61 | 0.43 | 94 | 949.8 |
| 20260503205415 | 13 | 255 | 0.0 | 1.6 | 0.00 | 0.61 | 0.43 | 94 | 949.8 |
| 20260503205124 | 13 | 255 | 0.0 | 0.0 | 0.00 | 0.61 | 0.43 | 94 | 949.8 |
| 20260503204623 | 13 | 255 | 0.0 | 0.0 | 0.00 | 0.61 | 0.43 | 94 | 949.9 |
| 20260503203914 | 13 | 255 | 0.0 | 3.2 | 0.00 | 0.61 | 0.43 | 93 | 949.8 |
| 20260503203414 | 13 | 255 | 0.0 | 6.4 | 0.00 | 0.61 | 0.43 | 93 | 949.8 |
| 20260503202914 | 13 | 255 | 1.6 | 6.4 | 0.00 | 0.61 | 0.43 | 94 | 949.7 |
| 20260503202414 | 13 | 244 | 1.6 | 3.2 | 0.00 | 0.61 | 0.43 | 94 | 949.7 |
| 20260503201914 | 13 | 234 | 0.0 | 3.2 | 0.00 | 0.61 | 0.43 | 95 | 949.7 |
| 20260503201622 | 13 | 235 | 0.0 | 3.2 | 0.00 | 0.61 | 0.43 | 95 | 949.7 |
| 20260503201122 | 13 | 220 | 0.0 | 1.6 | 0.00 | 0.61 | 0.43 | 95 | 949.6 |
| 20260503200414 | 13 | 152 | 0.0 | 0.0 | 0.00 | 0.61 | 0.43 | 95 | 949.5 |
| 20260503195913 | 13 | 152 | 0.0 | 0.0 | 0.00 | 0.61 | 0.43 | 94 | 949.6 |
| 20260503195622 | 13 | 152 | 0.0 | 1.6 | 0.00 | 0.61 | 0.43 | 94 | 949.5 |
| 20260503194913 | 13 | 152 | 0.0 | 1.6 | 0.00 | 0.61 | 0.43 | 94 | 949.4 |
| 20260503194621 | 13 | 152 | 0.0 | 3.2 | 0.00 | 0.61 | 0.43 | 94 | 949.3 |
| 20260503194122 | 13 | 152 | 1.6 | 3.2 | 0.00 | 0.61 | 0.43 | 94 | 949.3 |
| 20260503193414 | 13 | 149 | 1.6 | 3.2 | 0.00 | 0.61 | 0.43 | 94 | 949.2 |
| 20260503193121 | 13 | 137 | 0.0 | 0.0 | 0.00 | 0.61 | 0.43 | 94 | 949.1 |
| 20260503192413 | 13 | 135 | 0.0 | 0.0 | 0.00 | 0.61 | 0.43 | 94 | 949.1 |
| 20260503192121 | 13 | 137 | 0.0 | 1.6 | 0.00 | 0.61 | 0.43 | 94 | 949.0 |
| 20260503191413 | 13 | 135 | 0.0 | 1.6 | 0.03 | 0.61 | 0.43 | 94 | 949.1 |
| 20260503191121 | 13 | 135 | 0.0 | 1.6 | 0.03 | 0.61 | 0.43 | 94 | 948.9 |
| 20260503190412 | 13 | 343 | 0.0 | 1.6 | 0.03 | 0.61 | 0.43 | 93 | 948.9 |
| 20260503185913 | 13 | 343 | 0.0 | 1.6 | 0.03 | 0.58 | 0.43 | 93 | 948.8 |
| 20260503185413 | 13 | 343 | 0.0 | 1.6 | 0.03 | 0.58 | 0.43 | 93 | 948.8 |
| 20260503184912 | 13 | 341 | 0.0 | 0.0 | 0.05 | 0.58 | 0.43 | 92 | 948.8 |
| 20260503184411 | 13 | 341 | 0.0 | 0.0 | 0.05 | 0.61 | 0.43 | 92 | 948.7 |
| 20260503183912 | 13 | 341 | 0.0 | 0.0 | 0.05 | 0.61 | 0.43 | 92 | 948.7 |
| 20260503183412 | 13 | 343 | 0.0 | 0.0 | 0.05 | 0.61 | 0.43 | 92 | 948.8 |
| 20260503182911 | 13 | 341 | 0.0 | 0.0 | 0.05 | 0.61 | 0.43 | 91 | 948.8 |
| 20260503182412 | 13 | 343 | 0.0 | 1.6 | 0.05 | 0.61 | 0.43 | 91 | 948.8 |
| 20260503181912 | 13 | 341 | 0.0 | 3.2 | 0.05 | 0.64 | 0.43 | 90 | 948.7 |
| 20260503181411 | 14 | 343 | 0.0 | 6.4 | 0.05 | 0.69 | 0.43 | 89 | 948.7 |
| 20260503180911 | 14 | 337 | 0.0 | 6.4 | 0.05 | 0.71 | 0.43 | 88 | 948.8 |
| 20260503180411 | 14 | 79 | 1.6 | 8.0 | 0.05 | 0.76 | 0.43 | 87 | 948.7 |
| 20260503175911 | 14 | 80 | 0.0 | 8.0 | 0.05 | 0.76 | 0.43 | 87 | 948.7 |
| 20260503175409 | 14 | 58 | 3.2 | 8.0 | 0.05 | 0.84 | 0.43 | 87 | 948.8 |
| 20260503175112 | 14 | 28 | 4.8 | 16.1 | 0.03 | 0.91 | 0.41 | 86 | 948.8 |
| 20260503174403 | 15 | 7 | 8.0 | 19.3 | 0.00 | 0.94 | 0.38 | 85 | 948.8 |
| 20260503173906 | 15 | 133 | 8.0 | 19.3 | 0.00 | 0.99 | 0.38 | 84 | 948.8 |
| 20260503173902 | 15 | 158 | 8.0 | 19.3 | 0.00 | 0.99 | 0.38 | 84 | 948.8 |
| 20260503173611 | 14 | 62 | 6.4 | 9.7 | 0.00 | 1.07 | 0.38 | 86 | 948.8 |
| 20260503172906 | 15 | 110 | 1.6 | 4.8 | 0.00 | 1.12 | 0.38 | 88 | 948.8 |
| 20260503172902 | 15 | 110 | 1.6 | 4.8 | 0.00 | 1.12 | 0.38 | 87 | 948.8 |
| 20260503172402 | 15 | 75 | 1.6 | 3.2 | 0.00 | 1.24 | 0.38 | 87 | 948.7 |
| 20260503171903 | 15 | 312 | 0.0 | 3.2 | 0.00 | 1.50 | 0.38 | 86 | 948.6 |
| 20260503171404 | 15 | 324 | 0.0 | 4.8 | 0.00 | 1.63 | 0.38 | 86 | 948.5 |
| 20260503171400 | 15 | 324 | 0.0 | 4.8 | 0.00 | 1.65 | 0.38 | 86 | 948.5 |
| 20260503170902 | 15 | 326 | 1.6 | 4.8 | 0.00 | 1.65 | 0.38 | 85 | 948.5 |
| 20260503170853 | 15 | 326 | 1.6 | 4.8 | 0.00 | 1.65 | 0.38 | 85 | 948.5 |
| 20260503170403 | 15 | 282 | 1.6 | 4.8 | 0.00 | 1.65 | 0.38 | 85 | 948.5 |
| 20260503170345 | 15 | 295 | 1.6 | 3.2 | 0.00 | 1.65 | 0.38 | 85 | 948.5 |
| 20260503150834 | 16 | 274 | 3.2 | 8.0 | 0.00 | 1.80 | 0.38 | 83 | 948.9 |
| 20260503150542 | 16 | 303 | 4.8 | 8.0 | 0.00 | 1.80 | 0.38 | 84 | 948.9 |
| 20260503140313 | 15 | 326 | 3.2 | 9.7 | 0.13 | 2.03 | 0.38 | 91 | 949.7 |
| 20260503131308 | 14 | 13 | 8.0 | 16.1 | 0.03 | 2.44 | 0.25 | 87 | 950.2 |
| 20260503130808 | 15 | 21 | 9.7 | 16.1 | 0.03 | 2.46 | 0.25 | 87 | 950.3 |
| 20260503130308 | 15 | 357 | 8.0 | 16.1 | 0.03 | 2.46 | 0.25 | 87 | 950.3 |
| 20260503110305 | 14 | 324 | 8.0 | 9.7 | 0.00 | 3.71 | 0.20 | 88 | 951.2 |
| 20260503090307 | 13 | 317 | 1.6 | 4.8 | 0.00 | 3.71 | 0.20 | 92 | 951.6 |
| 20260503090303 | 13 | 317 | 1.6 | 4.8 | 0.00 | 3.71 | 0.20 | 92 | 951.6 |
| 20260503081510 | 13 | 288 | 1.6 | 4.8 | 0.00 | 3.71 | 0.20 | 93 | 951.5 |
| 20260503080806 | 13 | 299 | 1.6 | 4.8 | 0.00 | 3.71 | 0.20 | 92 | 951.6 |
| 20260503080802 | 13 | 310 | 1.6 | 4.8 | 0.00 | 3.71 | 0.20 | 92 | 951.6 |
| 20260503080306 | 13 | 327 | 1.6 | 4.8 | 0.00 | 3.71 | 0.20 | 93 | 951.6 |
| 20260503080302 | 13 | 290 | 1.6 | 4.8 | 0.00 | 3.71 | 0.20 | 93 | 951.6 |
| 20260503072805 | 12 | 310 | 0.0 | 1.6 | 0.00 | 3.71 | 0.20 | 94 | 951.6 |
| 20260503072801 | 12 | 310 | 0.0 | 1.6 | 0.00 | 3.71 | 0.20 | 94 | 951.6 |
| 20260503072305 | 12 | 310 | 0.0 | 4.8 | 0.00 | 3.71 | 0.20 | 93 | 951.6 |
| 20260503072300 | 12 | 310 | 0.0 | 4.8 | 0.00 | 3.71 | 0.20 | 93 | 951.6 |
| 20260503071804 | 12 | 320 | 0.0 | 4.8 | 0.00 | 3.71 | 0.20 | 93 | 951.6 |
| 20260503071800 | 12 | 320 | 0.0 | 4.8 | 0.00 | 3.71 | 0.20 | 93 | 951.6 |
| 20260503071304 | 12 | 314 | 0.0 | 4.8 | 0.00 | 3.71 | 0.20 | 93 | 951.6 |
| 20260503071300 | 12 | 314 | 0.0 | 4.8 | 0.00 | 3.71 | 0.20 | 93 | 951.6 |
| 20260503070804 | 12 | 314 | 1.6 | 6.4 | 0.00 | 3.71 | 0.20 | 93 | 951.5 |
| 20260503070800 | 12 | 314 | 1.6 | 6.4 | 0.00 | 3.71 | 0.20 | 93 | 951.5 |
| 20260503070508 | 12 | 309 | 1.6 | 6.4 | 0.00 | 3.71 | 0.20 | 94 | 951.6 |
| 20260503060302 | 12 | 279 | 1.6 | 9.7 | 0.00 | 3.71 | 0.20 | 93 | 951.5 |
| 20260503060258 | 12 | 281 | 1.6 | 9.7 | 0.00 | 3.71 | 0.20 | 93 | 951.5 |
| 20260503054802 | 12 | 272 | 1.6 | 6.4 | 0.00 | 3.71 | 0.20 | 94 | 951.4 |
| 20260503054758 | 12 | 272 | 1.6 | 6.4 | 0.00 | 3.71 | 0.20 | 94 | 951.4 |
| 20260503054304 | 12 | 275 | 0.0 | 6.4 | 0.00 | 3.71 | 0.20 | 94 | 951.5 |
| 20260503054258 | 12 | 268 | 0.0 | 6.4 | 0.00 | 3.71 | 0.20 | 94 | 951.5 |
| 20260503053803 | 12 | 307 | 1.6 | 4.8 | 0.00 | 3.71 | 0.20 | 94 | 951.4 |
| 20260503053758 | 12 | 275 | 1.6 | 3.2 | 0.00 | 3.71 | 0.20 | 94 | 951.4 |
| 20260503053302 | 12 | 281 | 0.0 | 3.2 | 0.00 | 3.71 | 0.20 | 94 | 951.4 |
| 20260503053258 | 12 | 281 | 0.0 | 3.2 | 0.00 | 3.71 | 0.20 | 94 | 951.4 |
| 20260503052802 | 12 | 281 | 0.0 | 3.2 | 0.00 | 3.71 | 0.20 | 94 | 951.4 |
| 20260503052758 | 12 | 281 | 0.0 | 3.2 | 0.00 | 3.71 | 0.20 | 94 | 951.4 |
| 20260503052305 | 12 | 286 | 0.0 | 6.4 | 0.00 | 3.71 | 0.20 | 94 | 951.4 |
| 20260503052258 | 12 | 286 | 0.0 | 6.4 | 0.00 | 3.71 | 0.20 | 94 | 951.4 |
| 20260503051802 | 12 | 289 | 1.6 | 6.4 | 0.00 | 3.71 | 0.20 | 94 | 951.4 |
| 20260503051757 | 12 | 290 | 1.6 | 6.4 | 0.00 | 3.71 | 0.20 | 94 | 951.4 |
| 20260503051506 | 11 | 257 | 1.6 | 4.8 | 0.00 | 3.71 | 0.20 | 94 | 951.4 |
| 20260503050802 | 11 | 274 | 0.0 | 4.8 | 0.00 | 3.71 | 0.20 | 94 | 951.3 |
| 20260503050758 | 11 | 274 | 0.0 | 4.8 | 0.00 | 3.71 | 0.20 | 94 | 951.3 |
| 20260503050302 | 11 | 278 | 0.0 | 1.6 | 0.00 | 3.71 | 0.20 | 94 | 951.3 |
| 20260503050257 | 11 | 278 | 0.0 | 1.6 | 0.00 | 3.71 | 0.20 | 94 | 951.3 |
| 20260503045802 | 11 | 257 | 0.0 | 1.6 | 0.00 | 3.71 | 0.20 | 94 | 951.3 |
| 20260503045757 | 11 | 257 | 0.0 | 1.6 | 0.00 | 3.71 | 0.20 | 94 | 951.3 |
| 20260503045301 | 11 | 257 | 0.0 | 1.6 | 0.00 | 3.71 | 0.20 | 94 | 951.3 |
| 20260503045257 | 11 | 257 | 0.0 | 1.6 | 0.00 | 3.71 | 0.20 | 94 | 951.3 |
| 20260503044802 | 11 | 274 | 0.0 | 1.6 | 0.00 | 3.71 | 0.20 | 94 | 951.3 |
| 20260503044757 | 11 | 274 | 0.0 | 1.6 | 0.00 | 3.71 | 0.20 | 94 | 951.3 |
| 20260503044506 | 11 | 274 | 0.0 | 3.2 | 0.00 | 3.71 | 0.20 | 94 | 951.3 |
| 20260503043803 | 11 | 281 | 1.6 | 3.2 | 0.00 | 3.71 | 0.20 | 94 | 951.4 |
| 20260503043757 | 11 | 281 | 1.6 | 3.2 | 0.00 | 3.71 | 0.20 | 94 | 951.4 |
| 20260503043302 | 11 | 305 | 1.6 | 3.2 | 0.00 | 3.71 | 0.20 | 94 | 951.4 |
| 20260503043257 | 11 | 314 | 1.6 | 3.2 | 0.00 | 3.71 | 0.20 | 94 | 951.4 |
| 20260503042802 | 11 | 282 | 0.0 | 6.4 | 0.00 | 3.71 | 0.20 | 94 | 951.5 |
| 20260503042756 | 11 | 283 | 0.0 | 6.4 | 0.00 | 3.71 | 0.20 | 94 | 951.5 |
| 20260503042304 | 11 | 265 | 1.6 | 6.4 | 0.00 | 3.71 | 0.20 | 94 | 951.5 |
| 20260503042257 | 11 | 266 | 1.6 | 6.4 | 0.00 | 3.71 | 0.20 | 94 | 951.5 |
| 20260503042005 | 11 | 262 | 1.6 | 3.2 | 0.00 | 3.71 | 0.20 | 94 | 951.5 |
| 20260503041302 | 11 | 264 | 0.0 | 3.2 | 0.00 | 3.71 | 0.20 | 94 | 951.5 |
| 20260503041256 | 11 | 264 | 0.0 | 3.2 | 0.00 | 3.71 | 0.20 | 94 | 951.5 |
| 20260503041004 | 11 | 282 | 0.0 | 6.4 | 0.00 | 3.71 | 0.20 | 94 | 951.5 |
| 20260503040303 | 11 | 250 | 1.6 | 6.4 | 0.00 | 3.71 | 0.20 | 94 | 951.4 |
| 20260503040256 | 11 | 250 | 1.6 | 6.4 | 0.00 | 3.71 | 0.20 | 94 | 951.4 |
| 20260503035803 | 11 | 274 | 1.6 | 4.8 | 0.00 | 3.71 | 0.20 | 94 | 951.4 |
| 20260503035756 | 11 | 293 | 1.6 | 4.8 | 0.00 | 3.71 | 0.20 | 94 | 951.4 |
| 20260503035505 | 11 | 307 | 1.6 | 4.8 | 0.00 | 3.71 | 0.20 | 93 | 951.5 |
| 20260503034802 | 11 | 288 | 1.6 | 14.5 | 0.00 | 3.71 | 0.20 | 93 | 951.5 |
| 20260503034756 | 11 | 300 | 1.6 | 14.5 | 0.00 | 3.71 | 0.20 | 93 | 951.5 |
| 20260503034302 | 11 | 281 | 3.2 | 14.5 | 0.00 | 3.71 | 0.20 | 93 | 951.5 |
| 20260503034255 | 11 | 274 | 3.2 | 14.5 | 0.00 | 3.71 | 0.20 | 93 | 951.5 |
| 20260503033802 | 11 | 299 | 1.6 | 6.4 | 0.00 | 3.71 | 0.20 | 93 | 951.6 |
| 20260503033755 | 11 | 282 | 0.0 | 4.8 | 0.00 | 3.71 | 0.20 | 93 | 951.6 |
| 20260503033504 | 11 | 323 | 1.6 | 8.0 | 0.00 | 3.71 | 0.20 | 93 | 951.4 |
| 20260503032802 | 11 | 269 | 4.8 | 11.3 | 0.00 | 3.71 | 0.20 | 93 | 951.5 |
| 20260503032756 | 11 | 310 | 4.8 | 11.3 | 0.00 | 3.71 | 0.20 | 93 | 951.5 |
| 20260503032304 | 11 | 292 | 4.8 | 11.3 | 0.00 | 3.71 | 0.20 | 93 | 951.3 |
| 20260503032256 | 11 | 281 | 4.8 | 11.3 | 0.00 | 3.71 | 0.20 | 93 | 951.3 |
| 20260503031803 | 11 | 293 | 3.2 | 9.7 | 0.00 | 3.71 | 0.20 | 93 | 951.3 |
| 20260503031755 | 11 | 274 | 4.8 | 9.7 | 0.00 | 3.71 | 0.20 | 93 | 951.3 |
| 20260503031504 | 11 | 299 | 3.2 | 6.4 | 0.00 | 3.71 | 0.20 | 93 | 951.3 |
| 20260503030803 | 11 | 300 | 3.2 | 9.7 | 0.00 | 3.71 | 0.20 | 93 | 951.5 |
| 20260503030755 | 11 | 292 | 3.2 | 9.7 | 0.00 | 3.71 | 0.20 | 93 | 951.5 |
| 20260503030303 | 11 | 305 | 4.8 | 9.7 | 0.00 | 3.71 | 0.20 | 93 | 951.7 |
| 20260503030255 | 11 | 290 | 4.8 | 9.7 | 0.00 | 3.71 | 0.20 | 93 | 951.7 |
| 20260503025802 | 11 | 269 | 3.2 | 6.4 | 0.00 | 3.71 | 0.20 | 93 | 951.8 |
| 20260503025754 | 11 | 278 | 1.6 | 6.4 | 0.00 | 3.71 | 0.20 | 93 | 951.8 |
| 20260503025305 | 11 | 248 | 3.2 | 8.0 | 0.00 | 3.71 | 0.20 | 93 | 951.8 |
| 20260503025255 | 11 | 250 | 3.2 | 8.0 | 0.00 | 3.71 | 0.20 | 93 | 951.8 |
| 20260503024802 | 11 | 264 | 4.8 | 9.7 | 0.00 | 3.71 | 0.20 | 93 | 951.8 |
| 20260503024755 | 11 | 286 | 4.8 | 9.7 | 0.00 | 3.71 | 0.20 | 93 | 951.8 |
| 20260503024302 | 11 | 313 | 4.8 | 9.7 | 0.00 | 3.71 | 0.20 | 93 | 951.8 |
| 20260503024255 | 11 | 283 | 4.8 | 9.7 | 0.00 | 3.71 | 0.20 | 93 | 951.8 |
| 20260503023802 | 11 | 271 | 6.4 | 14.5 | 0.00 | 3.71 | 0.20 | 93 | 951.9 |
| 20260503023755 | 11 | 279 | 6.4 | 14.5 | 0.00 | 3.71 | 0.20 | 93 | 951.9 |
| 20260503023302 | 11 | 323 | 3.2 | 14.5 | 0.00 | 3.71 | 0.20 | 94 | 951.8 |
| 20260503023254 | 11 | 313 | 3.2 | 14.5 | 0.00 | 3.71 | 0.20 | 94 | 951.8 |
| 20260503023003 | 11 | 261 | 4.8 | 11.3 | 0.00 | 3.71 | 0.20 | 94 | 951.9 |
| 20260503022503 | 11 | 293 | 3.2 | 6.4 | 0.00 | 3.71 | 0.20 | 94 | 952.0 |
| 20260503021802 | 11 | 285 | 1.6 | 9.7 | 0.00 | 3.71 | 0.20 | 94 | 952.1 |
| 20260503021755 | 11 | 286 | 1.6 | 9.7 | 0.00 | 3.71 | 0.20 | 94 | 952.1 |
| 20260503021302 | 11 | 317 | 3.2 | 9.7 | 0.00 | 3.71 | 0.20 | 94 | 952.0 |
| 20260503021254 | 11 | 276 | 3.2 | 9.7 | 0.00 | 3.71 | 0.20 | 94 | 952.0 |
| 20260503020802 | 11 | 282 | 1.6 | 6.4 | 0.00 | 3.71 | 0.20 | 95 | 952.0 |
| 20260503020754 | 11 | 293 | 1.6 | 6.4 | 0.00 | 3.71 | 0.20 | 95 | 952.0 |
| 20260503020303 | 11 | 317 | 3.2 | 6.4 | 0.00 | 3.71 | 0.20 | 95 | 952.0 |
| 20260503020254 | 11 | 317 | 3.2 | 6.4 | 0.00 | 3.71 | 0.20 | 95 | 952.0 |
| 20260503015802 | 11 | 290 | 1.6 | 3.2 | 0.00 | 3.71 | 0.20 | 95 | 952.1 |
| 20260503015753 | 11 | 290 | 1.6 | 3.2 | 0.00 | 3.71 | 0.20 | 95 | 952.1 |
| 20260503015305 | 11 | 314 | 0.0 | 4.8 | 0.00 | 3.71 | 0.20 | 94 | 952.2 |
| 20260503015253 | 11 | 314 | 0.0 | 4.8 | 0.00 | 3.71 | 0.20 | 94 | 952.2 |
| 20260503014802 | 11 | 316 | 1.6 | 4.8 | 0.00 | 3.71 | 0.20 | 94 | 952.3 |
| 20260503014753 | 11 | 316 | 3.2 | 4.8 | 0.00 | 3.71 | 0.20 | 94 | 952.3 |
| 20260503014302 | 11 | 313 | 1.6 | 6.4 | 0.00 | 3.71 | 0.20 | 95 | 952.3 |
| 20260503014253 | 11 | 313 | 1.6 | 6.4 | 0.00 | 3.71 | 0.20 | 95 | 952.3 |
| 20260503013801 | 11 | 303 | 1.6 | 6.4 | 0.00 | 3.71 | 0.20 | 95 | 952.4 |
| 20260503013753 | 11 | 305 | 1.6 | 6.4 | 0.00 | 3.71 | 0.20 | 95 | 952.4 |
| 20260503013302 | 11 | 305 | 0.0 | 6.4 | 0.00 | 3.71 | 0.20 | 95 | 952.4 |
| 20260503013254 | 11 | 305 | 0.0 | 6.4 | 0.00 | 3.71 | 0.20 | 95 | 952.4 |
| 20260503012802 | 11 | 303 | 1.6 | 6.4 | 0.00 | 3.71 | 0.20 | 95 | 952.4 |
| 20260503012753 | 11 | 309 | 3.2 | 6.4 | 0.00 | 3.71 | 0.20 | 95 | 952.4 |
| 20260503012305 | 11 | 266 | 3.2 | 11.3 | 0.00 | 3.71 | 0.20 | 95 | 952.5 |
| 20260503012253 | 11 | 257 | 3.2 | 11.3 | 0.00 | 3.71 | 0.20 | 95 | 952.5 |
| 20260503011802 | 11 | 290 | 3.2 | 11.3 | 0.00 | 3.71 | 0.20 | 95 | 952.4 |
| 20260503011753 | 11 | 293 | 3.2 | 11.3 | 0.00 | 3.71 | 0.20 | 95 | 952.4 |
| 20260503011302 | 11 | 309 | 8.0 | 11.3 | 0.00 | 3.71 | 0.20 | 95 | 952.6 |
| 20260503011253 | 11 | 275 | 8.0 | 11.3 | 0.00 | 3.71 | 0.20 | 95 | 952.6 |
| 20260503010802 | 11 | 299 | 4.8 | 11.3 | 0.00 | 3.71 | 0.20 | 95 | 952.6 |
| 20260503010752 | 11 | 298 | 4.8 | 11.3 | 0.00 | 3.71 | 0.20 | 95 | 952.6 |
| 20260503010301 | 11 | 302 | 3.2 | 8.0 | 0.00 | 3.71 | 0.20 | 95 | 952.6 |
| 20260503010253 | 11 | 258 | 3.2 | 8.0 | 0.00 | 3.71 | 0.20 | 95 | 952.6 |
| 20260503005802 | 11 | 259 | 1.6 | 6.4 | 0.00 | 3.71 | 0.20 | 95 | 952.6 |
| 20260503005753 | 11 | 261 | 3.2 | 6.4 | 0.00 | 3.71 | 0.20 | 95 | 952.6 |
| 20260503005304 | 11 | 261 | 1.6 | 6.4 | 0.00 | 3.71 | 0.20 | 95 | 952.7 |
| 20260503005252 | 11 | 261 | 1.6 | 6.4 | 0.00 | 3.71 | 0.20 | 95 | 952.7 |
| 20260503004802 | 11 | 255 | 1.6 | 4.8 | 0.00 | 3.71 | 0.20 | 95 | 952.7 |
| 20260503004752 | 11 | 255 | 1.6 | 4.8 | 0.00 | 3.71 | 0.20 | 95 | 952.7 |
| 20260503004302 | 11 | 257 | 0.0 | 4.8 | 0.00 | 3.71 | 0.20 | 95 | 952.7 |
| 20260503004252 | 11 | 257 | 1.6 | 4.8 | 0.00 | 3.71 | 0.20 | 95 | 952.7 |
| 20260503004000 | 11 | 251 | 1.6 | 11.3 | 0.00 | 3.71 | 0.20 | 95 | 952.6 |
| 20260503003302 | 11 | 329 | 3.2 | 11.3 | 0.00 | 3.71 | 0.20 | 95 | 952.7 |
| 20260503003252 | 11 | 344 | 3.2 | 11.3 | 0.00 | 3.71 | 0.20 | 95 | 952.7 |
| 20260503002802 | 11 | 262 | 3.2 | 9.7 | 0.00 | 3.71 | 0.20 | 95 | 952.7 |
| 20260503002751 | 11 | 255 | 3.2 | 9.7 | 0.00 | 3.71 | 0.20 | 95 | 952.7 |
| 20260503002500 | 11 | 324 | 3.2 | 8.0 | 0.00 | 3.71 | 0.20 | 95 | 952.8 |
| 20260503001802 | 11 | 324 | 4.8 | 8.0 | 0.00 | 3.71 | 0.20 | 95 | 952.8 |
| 20260503001751 | 11 | 309 | 3.2 | 8.0 | 0.00 | 3.71 | 0.20 | 95 | 952.8 |
| 20260503001500 | 11 | 320 | 3.2 | 9.7 | 0.00 | 3.71 | 0.20 | 95 | 952.9 |
| 20260503000802 | 11 | 302 | 3.2 | 11.3 | 0.00 | 3.71 | 0.20 | 95 | 952.8 |
| 20260503000751 | 11 | 300 | 3.2 | 14.5 | 0.00 | 3.71 | 0.20 | 95 | 952.8 |
| 20260503000302 | 11 | 314 | 4.8 | 16.1 | 0.00 | 3.71 | 0.20 | 94 | 952.7 |
| 20260503000251 | 11 | 309 | 4.8 | 17.7 | 0.00 | 3.71 | 0.20 | 94 | 952.7 |